DW8903 Weather Reports


Display with metric or nautical units.
time (UTC)temp
F
wind
direction
speed
MPH
gust
MPH
rain 1hr
in
rain 24hr
in
rain mn
in
humidity
%
barometer
mb
20260506044534 34 304 0.0 3.0 0.00 0.00 0.00 91 1011.3
20260506043027 32 324 1.0 3.0 0.00 0.00 0.00 91 1011.2
20260506041523 31 324 1.0 3.0 0.00 0.00 0.00 91 1011.0
20260506040033 31 312 0.0 4.0 0.00 0.00 0.00 91 1010.9
20260506034518 29 294 1.0 3.0 0.00 0.00 0.00 91 1010.8
20260506033016 28 321 1.0 4.0 0.00 0.00 0.00 90 1010.6
20260506031514 27 324 1.0 5.0 0.00 0.00 0.00 89 1010.5
20260506030010 27 273 0.0 2.0 0.00 0.00 0.00 89 1010.3
20260506024523 27 254 1.0 3.0 0.00 0.00 0.00 89 1010.1
20260506023006 27 218 0.0 2.0 0.00 0.00 0.00 88 1010.0
20260506021506 27 279 0.0 1.0 0.00 0.00 0.00 88 1009.9
20260506020004 27 263 0.0 3.0 0.00 0.00 0.00 87 1009.9
20260506014506 27 263 0.0 2.0 0.00 0.00 0.00 86 1009.8
20260506013001 27 281 0.0 2.0 0.00 0.00 0.00 86 1009.7
20260506011558 27 290 0.0 2.0 0.00 0.00 0.00 84 1009.5
20260506010058 28 276 0.0 2.0 0.00 0.00 0.00 83 1009.3
20260506004553 29 237 0.0 3.0 0.00 0.00 0.00 83 1009.2
20260506003057 29 238 0.0 2.0 0.00 0.00 0.00 83 1009.1
20260506001604 30 233 0.0 3.0 0.00 0.00 0.00 83 1008.9
20260506000052 30 258 0.0 3.0 0.00 0.00 0.00 84 1008.9
20260505234607 30 259 1.0 4.0 0.00 0.00 0.00 85 1008.8
20260505233050 30 259 1.0 3.0 0.00 0.00 0.00 85 1008.7
20260505231547 30 274 2.0 3.0 0.00 0.00 0.00 83 1008.7
20260505230048 30 292 1.0 5.0 0.00 0.00 0.00 84 1008.6
20260505224547 29 252 1.0 5.0 0.00 0.00 0.00 85 1008.7
20260505223057 29 267 1.0 3.0 0.00 0.00 0.00 84 1008.7
20260505221543 29 274 1.0 3.0 0.00 0.00 0.00 81 1008.6
20260505220043 29 266 0.0 4.0 0.00 0.00 0.00 79 1008.5
20260505214551 30 250 0.0 2.0 0.00 0.01 0.00 79 1008.5
20260505213037 30 250 0.0 2.0 0.00 0.01 0.00 79 1008.4
20260505211542 30 289 0.0 2.0 0.00 0.01 0.00 79 1008.3
20260505210032 31 259 1.0 2.0 0.00 0.01 0.00 76 1008.3
20260505204528 31 255 0.0 2.0 0.00 0.02 0.01 73 1008.2
20260505203032 32 228 1.0 4.0 0.00 0.02 0.01 72 1008.0
20260505201522 33 289 0.0 2.0 0.00 0.02 0.01 72 1007.9
20260505200020 34 289 1.0 3.0 0.00 0.02 0.01 71 1007.8
20260505194518 34 280 1.0 3.0 0.00 0.02 0.01 72 1007.6
20260505193016 35 280 1.0 3.0 0.00 0.02 0.01 71 1007.6
20260505191513 36 279 1.0 2.0 0.00 0.02 0.01 71 1007.6
20260505190015 37 279 0.0 3.0 0.00 0.02 0.01 69 1007.3
20260505184508 38 263 0.0 2.0 0.00 0.02 0.01 67 1007.2
20260505183003 38 261 1.0 4.0 0.00 0.02 0.01 66 1007.1
20260505181600 39 243 1.0 3.0 0.00 0.02 0.01 65 1006.9
20260505180104 40 288 2.0 4.0 0.00 0.02 0.01 64 1006.7
20260505174555 41 308 2.0 5.0 0.00 0.02 0.01 62 1006.6
20260505173056 42 298 2.0 4.0 0.00 0.02 0.01 60 1006.5
20260505171556 42 292 2.0 4.0 0.00 0.02 0.01 62 1006.4
20260505170052 42 301 3.0 9.0 0.00 0.02 0.01 60 1006.4
20260505164551 44 302 3.0 4.0 0.00 0.02 0.01 56 1006.3
20260505163051 44 298 3.0 6.0 0.00 0.02 0.01 55 1006.2
20260505161549 44 300 3.0 7.0 0.00 0.02 0.01 56 1006.0
20260505153051 45 296 3.0 5.0 0.00 0.02 0.01 54 1005.8
20260505151548 47 296 5.0 9.0 0.00 0.02 0.01 51 1005.7
20260505124535 52 296 6.0 13.0 0.00 0.02 0.01 46 1004.7
20260505123034 50 299 3.0 11.0 0.00 0.02 0.01 46 1004.6
20260505121537 49 304 3.0 7.0 0.00 0.02 0.01 47 1004.4
20260505120031 51 304 3.0 8.0 0.00 0.02 0.01 44 1004.4
20260505114529 51 328 5.0 9.0 0.00 0.02 0.01 42 1004.2
20260505113038 51 324 6.0 14.0 0.00 0.02 0.01 47 1004.2
20260505111539 47 283 2.0 6.0 0.00 0.02 0.01 54 1004.2
20260505101531 52 320 7.0 12.0 0.00 0.02 0.01 51 1003.6
20260505100023 50 284 3.0 7.0 0.00 0.02 0.01 55 1003.6
20260505094523 52 315 4.0 7.0 0.00 0.03 0.01 54 1003.5
20260505093017 47 320 4.0 8.0 0.00 0.03 0.01 63 1003.6
20260505091516 48 337 2.0 12.0 0.00 0.03 0.01 61 1003.5
20260505090015 46 315 6.0 10.0 0.00 0.03 0.01 67 1003.4
20260505084524 46 311 2.0 10.0 0.00 0.06 0.01 67 1003.2
20260505083008 45 300 5.0 11.0 0.00 0.06 0.01 74 1003.0
20260505081507 45 293 6.0 12.0 0.00 0.06 0.01 73 1002.8
20260505080011 44 306 5.0 11.0 0.00 0.06 0.01 75 1002.6
20260505074503 45 311 6.0 11.0 0.00 0.06 0.01 72 1002.3
20260505073104 45 318 5.0 10.0 0.00 0.06 0.01 73 1002.1
20260505071601 45 317 6.0 12.0 0.00 0.06 0.01 78 1001.7
20260505070105 44 321 5.0 11.0 0.00 0.06 0.01 78 1001.5
20260505064558 45 325 5.0 10.0 0.00 0.06 0.01 78 1001.2
20260505063055 45 318 2.0 11.0 0.00 0.06 0.01 78 1000.8
20260505061612 43 320 2.0 9.0 0.00 0.06 0.01 83 1000.7
20260505060055 44 315 2.0 11.0 0.00 0.06 0.01 84 1000.5
20260505054554 44 277 3.0 12.0 0.00 0.06 0.01 84 1000.3
20260505053047 44 267 1.0 4.0 0.00 0.06 0.01 85 1000.1